HK6REC-23 Weather Reports


time (UTC)temp
C
wind
direction
speed
KPH
gust
KPH
rain 1hr
cm
rain 24hr
cm
rain mn
cm
humidity
%
barometer
mb
20260507115411 13 175 1.6 1.6 0.00 0.00 0.00 90 1015.0
20260507113409 15 175 1.6 1.6 0.00 0.00 0.00 90 1015.0
20260507112408 12 234 0.0 0.0 0.00 0.00 0.00 87 1015.0
20260507111407 14 234 0.0 0.0 0.00 0.00 0.00 87 1015.0
20260507110406 11 234 0.0 0.0 0.00 0.00 0.00 90 1015.0
20260507105405 11 234 0.0 0.0 0.00 0.00 0.00 90 1015.0
20260507104404 12 234 0.0 0.0 0.00 0.00 0.00 90 1015.0
20260507103403 14 234 0.0 0.0 0.00 0.00 0.00 90 1015.0
20260507102402 12 270 0.0 0.0 0.00 0.00 0.00 86 1015.0
20260507101401 14 270 0.0 0.0 0.00 0.00 0.00 86 1015.0
20260507100400 11 270 0.0 0.0 0.00 0.00 0.00 89 1015.0
20260507095359 11 270 0.0 0.0 0.00 0.00 0.00 89 1015.0
20260507094358 12 270 0.0 0.0 0.00 0.00 0.00 89 1015.0
20260507093357 14 270 0.0 0.0 0.00 0.00 0.00 89 1015.0
20260507092356 12 252 1.6 0.0 0.00 0.00 0.00 85 1015.0
20260507091355 14 252 1.6 0.0 0.00 0.00 0.00 85 1015.0
20260507090354 11 252 1.6 0.0 0.00 0.00 0.00 88 1015.0
20260507085353 11 252 1.6 0.0 0.00 0.00 0.00 88 1015.0
20260507084353 11 252 1.6 0.0 0.00 0.00 0.00 88 1015.0
20260507083352 12 252 1.6 0.0 0.00 0.00 0.00 88 1015.0
20260507082350 12 278 1.6 0.0 0.00 0.00 0.00 88 1015.0
20260507081350 12 278 1.6 0.0 0.00 0.00 0.00 88 1015.0
20260507080349 11 278 1.6 0.0 0.00 0.00 0.00 92 1015.0
20260507075348 13 278 1.6 0.0 0.00 0.00 0.00 92 1015.0
20260507074347 15 278 1.6 0.0 0.00 0.00 0.00 92 1015.0
20260507073346 11 278 1.6 0.0 0.00 0.00 0.00 93 1015.0
20260507072345 11 309 1.6 1.6 0.00 0.00 0.00 93 1015.0
20260507071344 11 309 1.6 1.6 0.00 0.00 0.00 93 1015.0
20260507070343 12 309 1.6 1.6 0.00 0.00 0.00 93 1015.0
20260507065342 12 309 1.6 1.6 0.00 0.00 0.00 91 1015.0
20260507064341 13 309 1.6 1.6 0.00 0.00 0.00 91 1015.0
20260507063340 15 309 1.6 1.6 0.00 0.00 0.00 91 1015.0
20260507062339 13 307 1.6 1.6 0.00 0.00 0.00 88 1015.0
20260507061338 15 307 3.2 1.6 0.00 0.00 0.00 88 1015.0
20260507060337 12 307 3.2 1.6 0.00 0.00 0.00 91 1015.0
20260507055336 12 307 3.2 1.6 0.00 0.00 0.00 91 1015.0
20260507054335 12 301 3.2 1.6 0.00 0.00 0.00 91 1016.0
20260507053334 12 303 1.6 1.6 0.00 0.00 0.00 85 1016.0
20260507052333 13 303 1.6 1.6 0.00 0.00 0.00 85 1016.0
20260507051332 15 303 3.2 3.2 0.00 0.00 0.00 85 1016.0
20260507050331 12 303 3.2 3.2 0.00 0.00 0.00 88 1016.0
20260507045330 12 303 3.2 3.2 0.00 0.00 0.00 88 1016.0
20260507044329 13 303 1.6 1.6 0.00 0.00 0.00 88 1016.0
20260507043328 15 303 3.2 3.2 0.00 0.00 0.00 88 1016.0
20260507042327 13 298 4.8 4.8 0.00 0.00 0.00 82 1016.0
20260507041326 15 298 4.8 4.8 0.00 0.00 0.00 82 1016.0
20260507040325 12 298 4.8 4.8 0.00 0.00 0.00 83 1016.0
20260507035324 12 298 4.8 4.8 0.00 0.00 0.00 83 1016.0
20260507034323 12 298 4.8 4.8 0.00 0.00 0.00 83 1016.0
20260507033322 13 298 4.8 4.8 0.00 0.00 0.00 83 1016.0
20260507032320 13 294 4.8 4.8 0.00 0.00 0.00 83 1016.0
20260507031319 13 294 4.8 4.8 0.00 0.00 0.00 83 1016.0
20260507030318 12 294 4.8 4.8 0.00 0.00 0.00 88 1016.0
20260507025317 14 294 4.8 4.8 0.00 0.00 0.00 88 1016.0
20260507024316 16 294 4.8 4.8 0.00 0.00 0.00 88 1016.0
20260507023315 12 294 4.8 4.8 0.00 0.00 0.00 82 1016.0
20260507022314 12 301 4.8 4.8 0.00 0.00 0.00 82 1015.0
20260507021313 12 301 4.8 4.8 0.00 0.00 0.00 82 1015.0
20260507020312 13 301 4.8 4.8 0.00 0.00 0.00 88 1015.0
20260507015311 15 301 4.8 4.8 0.00 0.00 0.00 88 1015.0
20260507014310 13 298 6.4 6.4 0.00 0.00 0.00 83 1015.0
20260507013309 15 298 6.4 6.4 0.00 0.00 0.00 83 1015.0
20260507012308 16 298 6.4 6.4 0.00 0.00 0.00 83 1014.0
20260507011307 13 298 6.4 6.4 0.00 0.00 0.00 85 1014.0
20260507010306 15 298 6.4 6.4 0.00 0.00 0.00 85 1014.0
20260507005306 16 298 6.4 6.4 0.00 0.00 0.00 85 1014.0
20260507004304 13 273 6.4 11.3 0.00 0.00 0.00 76 1014.0
20260507003303 15 273 6.4 11.3 0.00 0.00 0.00 76 1014.0
20260507002305 16 273 6.4 11.3 0.00 0.00 0.00 76 1013.0
20260507001301 18 273 6.4 11.3 0.00 0.00 0.00 76 1013.0
20260507000300 13 273 6.4 11.3 0.00 0.00 0.00 75 1013.0
20260506235259 13 273 6.4 11.3 0.00 0.00 0.00 75 1013.0
20260506234258 15 286 4.8 6.4 0.00 0.00 0.00 75 1013.0
20260506233257 16 286 4.8 6.4 0.00 0.00 0.00 75 1013.0
20260506232257 18 286 4.8 6.4 0.00 0.00 0.00 75 1012.0
20260506231256 20 286 4.8 6.4 0.00 0.00 0.00 75 1012.0
20260506230255 15 286 4.8 6.4 0.00 0.00 0.00 74 1012.0
20260506225254 15 286 4.8 6.4 0.00 0.00 0.00 74 1012.0
20260506224253 14 286 4.8 6.4 0.00 0.00 0.00 74 1011.0
20260506223251 16 286 4.8 6.4 0.00 0.00 0.00 74 1011.0
20260506222250 16 280 3.2 6.4 0.00 0.00 0.00 74 1010.0
20260506221250 16 280 3.2 6.4 0.00 0.00 0.00 74 1010.0
20260506220249 17 280 3.2 6.4 0.00 0.00 0.00 74 1010.0
20260506215247 17 280 3.2 6.4 0.00 0.00 0.00 74 1010.0
20260506214247 16 280 1.6 6.4 0.00 0.00 0.00 74 1010.0
20260506213246 18 280 3.2 6.4 0.00 0.00 0.00 74 1010.0
20260506212245 18 266 1.6 8.0 0.00 0.00 0.00 74 1009.0
20260506211244 18 266 1.6 8.0 0.00 0.00 0.00 74 1009.0
20260506210243 19 266 1.6 8.0 0.00 0.00 0.00 74 1009.0
20260506205242 18 266 1.6 8.0 0.00 0.00 0.00 74 1009.0
20260506204241 20 266 1.6 8.0 0.00 0.00 0.00 74 1009.0
20260506203240 22 266 1.6 8.0 0.00 0.00 0.00 74 1009.0
20260506202239 21 259 1.6 4.8 0.00 0.00 0.00 69 1009.0
20260506201238 22 259 1.6 4.8 0.00 0.00 0.00 69 1009.0
20260506200237 20 259 1.6 4.8 0.00 0.00 0.00 69 1009.0
20260506195236 20 259 1.6 4.8 0.00 0.00 0.00 69 1009.0
20260506194235 21 259 1.6 4.8 0.00 0.00 0.00 69 1010.0
20260506193234 22 259 1.6 4.8 0.00 0.00 0.00 69 1010.0
20260506192233 21 249 0.0 4.8 0.00 0.00 0.00 69 1010.0
20260506191232 23 249 0.0 4.8 0.00 0.00 0.00 69 1010.0
20260506190231 21 249 0.0 4.8 0.00 0.00 0.00 72 1010.0
20260506185231 21 249 0.0 4.8 0.00 0.00 0.00 72 1010.0
20260506184229 21 249 0.0 4.8 0.00 0.00 0.00 72 1010.0
20260506183228 22 249 0.0 4.8 0.00 0.00 0.00 72 1010.0
20260506182227 22 178 0.0 4.8 0.00 0.00 0.00 72 1011.0
20260506181226 22 178 0.0 4.8 0.00 0.00 0.00 72 1011.0
20260506180225 23 178 0.0 4.8 0.00 0.00 0.00 72 1011.0
20260506175224 22 178 0.0 4.8 0.00 0.00 0.00 72 1011.0
20260506174223 23 171 0.0 4.8 0.00 0.00 0.00 72 1011.0
20260506173222 21 152 1.6 4.8 0.00 0.00 0.00 72 1011.0
20260506172221 23 152 1.6 4.8 0.00 0.00 0.00 72 1012.0
20260506171220 25 152 1.6 4.8 0.00 0.00 0.00 72 1012.0
20260506170219 22 152 1.6 4.8 0.00 0.00 0.00 72 1012.0
20260506165218 21 152 1.6 4.8 0.00 0.00 0.00 64 1012.0
20260506164218 23 152 1.6 4.8 0.00 0.00 0.00 64 1012.0
20260506163217 21 152 1.6 4.8 0.00 0.00 0.00 69 1012.0
20260506162216 21 140 3.2 4.8 0.00 0.00 0.00 69 1014.0
20260506161215 21 140 1.6 4.8 0.00 0.00 0.00 69 1014.0
20260506160214 22 140 3.2 4.8 0.00 0.00 0.00 69 1014.0
20260506155213 21 140 1.6 4.8 0.00 0.00 0.00 69 1013.0
20260506154212 22 140 3.2 4.8 0.00 0.00 0.00 69 1014.0
20260506153211 19 126 1.6 1.6 0.00 0.00 0.00 80 1014.0
20260506152210 21 126 3.2 3.2 0.00 0.00 0.00 80 1015.0
20260506151209 19 126 1.6 1.6 0.00 0.00 0.00 80 1015.0
20260506150208 21 126 3.2 3.2 0.00 0.00 0.00 80 1015.0
20260506145207 18 126 1.6 1.6 0.00 0.00 0.00 78 1015.0
20260506144206 20 126 3.2 3.2 0.00 0.00 0.00 78 1015.0
20260506143205 15 126 3.2 3.2 0.00 0.00 0.00 85 1015.0
20260506142204 15 117 3.2 1.6 0.00 0.00 0.00 85 1016.0
20260506141203 16 117 1.6 1.6 0.00 0.00 0.00 85 1016.0
20260506140202 18 117 3.2 1.6 0.00 0.00 0.00 85 1016.0
20260506135201 16 117 1.6 1.6 0.00 0.00 0.00 86 1016.0
20260506134200 18 117 3.2 1.6 0.00 0.00 0.00 86 1016.0
20260506133159 14 117 3.2 1.6 0.00 0.00 0.00 90 1016.0
20260506132158 14 125 1.6 1.6 0.00 0.00 0.00 90 1016.0
20260506131157 15 125 1.6 1.6 0.00 0.00 0.00 90 1016.0
20260506130156 17 125 1.6 1.6 0.00 0.00 0.00 90 1016.0
20260506125155 15 125 1.6 1.6 0.00 0.00 0.00 93 1016.0
20260506124154 16 125 1.6 1.6 0.00 0.00 0.00 93 1016.0
20260506123153 12 125 1.6 1.6 0.00 0.00 0.00 95 1016.0
20260506122152 12 194 0.0 0.0 0.00 0.00 0.00 95 1016.0
20260506121151 13 194 0.0 0.0 0.00 0.00 0.00 95 1016.0
20260506120150 15 194 0.0 0.0 0.00 0.00 0.00 95 1016.0